Orbital Elements at Epoch 2459200.5 (2020-Dec-17.0) TDB
Reference: JPL 22 (heliocentric ecliptic J2000)
Element | Value | Uncertainty (1-sigma) | Units |
e | .1701433524514186 | 3.6696e-08 | |
a | 2.64254968440338 | 1.1774e-08 | au |
q | 2.192937422079551 | 1.0074e-07 | au |
i | 4.217482939422347 | 4.2208e-06 | deg |
node | 194.5997660762754 | 5.165e-05 | deg |
peri | 278.7061002277154 | 5.3314e-05 | deg |
M | 51.64612795016819 | 1.2468e-05 | deg |
tp | 2458975.403659129273 (2020-May-05.90365913) | 5.4055e-05 | TDB |
period | 1569.036942936936 4.30 | 1.0486e-05 2.871e-08 | d yr |
n | .2294401044032457 | 1.5334e-09 | deg/d |
Q | 3.09216194672721 | 1.3777e-08 | au |
|
| | Orbit Determination Parameters
Additional Information
|